CAPE
7 13 16 14 20 31 5 4 3 5 2 0 0 0 25 0 5 2 1 25 2 2 0 30 17 15 0 0 0 0 0 0 0 0 1 1 0 0 0 0 0 0 3 0 0 0 0 0 0 0 0 0 0 0
8 8 9 18 19 14 9 5 2 0 0 0 0 10 16 0 22 7 6 13 0 0 1 0 0 0 0 0 0 0 0 0 0 0 0 0 0 0 0 0 0 0 0 0 0 0 0 0 0 0 0 0 0 0
12 6 7 5 4 3 0 0 0 0 0 9 40 48 17 16 11 1 9 7 1 1 0 0 0 0 0 0 0 0 0 0 21 0 0 3 0 0 0 0 0 0 0 0 0 0 0 0 0 0 0 0 0 0
3 5 3 3 2 3 3 7 6 11 5 0 1 2 2 4 4 14 18 6 2 6 1 0 0 0 10 15 0 0 0 39 30 0 1 0 0 0 0 0 0 0 0 0 0 0 0 0 0 0 0 0 0 0
0 2 0 0 0 1 4 0 0 0 2 2 1 0 1 22 22 4 22 11 3 0 2 1 0 0 45 69 30 9 4 0 0 7 0 2 0 0 0 0 0 0 0 0 0 0 0 0 0 0 0 0 0 0
2 0 0 0 0 9 2 9 2 2 10 0 16 53 53 8 0 0 0 0 2 31 13 4 0 0 11 68 58 57 7 7 0 0 0 0 0 0 0 0 0 0 0 0 0 0 0 0 0 0 0 0 0 0
0 0 0 0 0 4 2 4 3 24 8 8 0 2 4 2 0 0 1 5 3 12 13 5 2 0 37 11 3 19 0 1 8 0 0 0 0 0 0 0 0 0 0 0 0 0 0 0 0 0 0 0 0 0
0 0 0 0 1 3 2 4 9 4 9 0 0 0 0 0 0 0 0 0 0 31 18 2 1 0 0 5 14 0 0 0 0 0 0 0 0 0 0 0 0 0 0 0 0 0 0 0 0 0 0 0 0 0
0 0 0 0 0 0 0 0 0 0 0 0 2 2 1 0 0 0 4 17 31 0 0 0 4 3 0 0 0 0 0 0 0 0 0 0 0 0 0 0 0 0 0 0 0 0 0 0 0 0 0 0 0 0
0 0 0 0 0 0 0 0 0 0 0 0 12 9 6 0 9 39 4 0 0 0 0 1 0 1 0 0 0 0 0 0 0 0 0 0 0 0 0 0 0 0 0 0 0 0 0 0 0 0 0 0 0 0
0 0 0 0 0 0 0 0 0 0 0 1 1 3 11 1 27 4 1 1 1 0 0 0 0 0 0 0 0 0 0 0 0 1 0 0 0 0 0 0 0 0 0 0 0 0 0 0 0 0 0 0 0 0
0 0 0 0 0 0 0 0 0 0 0 0 6 6 5 10 2 0 0 1 0 0 0 1 0 0 0 0 0 0 0 0 0 0 0 0 0 0 0 0 0 0 0 0 0 0 0 0 0 0 0 0 0 0
2 1 0 0 0 0 0 0 0 2 0 1 0 0 2 0 0 0 0 0 0 0 0 1 0 0 0 0 0 0 0 0 0 0 0 0 1 0 0 0 0 0 0 0 0 0 0 0 0 0 0 0 0 0
0 0 2 2 2 0 0 0 0 1 0 0 1 0 0 0 0 0 0 2 0 0 0 0 1 0 0 0 0 0 0 0 0 0 0 1 1 0 0 0 0 0 0 0 0 0 0 0 0 0 0 0 0 0
0 0 0 0 0 1 0 0 0 0 0 0 0 0 0 1 1 1 0 0 0 0 0 0 0 0 0 0 0 0 0 0 0 0 0 0 0 0 0 0 0 0 0 0 0 0 0 0 0 0 0 0 0 0
0 0 0 0 0 0 0 0 0 0 0 0 0 0 0 0 0 0 0 0 1 0 0 0 0 0 0 0 0 0 0 0 0 1 1 1 0 0 2 3 3 2 1 0 0 0 0 0 0 0 0 0 0 0
0 0 0 0 0 0 0 0 0 0 0 0 0 1 0 1 2 3 2 1 0 0 0 0 0 1 0 0 0 1 0 1 1 0 2 0 0 2 2 1 1 0 0 0 0 0 0 0 0 0 0 0 0 0
0 0 0 0 0 0 0 0 0 0 0 0 0 1 2 2 2 3 2 3 0 0 1 0 0 0 0 0 0 0 0 0 1 1 2 2 2 1 1 1 1 0 0 0 0 0 0 0 0 0 0 0 0 0
0 0 0 0 0 0 0 0 0 0 0 0 0 0 1 1 1 1 1 1 2 0 0 0 0 0 0 0 0 0 0 1 1 1 0 0 0 0 1 0 0 0 0 0 0 0 0 0 0 0 0 0 0 0
0 0 0 0 0 0 0 0 0 0 0 0 0 0 0 0 0 0 0 0 0 0 0 0 0 0 1 1 0 0 0 1 1 0 0 0 0 0 0 1 0 0 0 0 0 0 0 0 0 0 0 0 0 0
0 0 0 0 0 0 0 0 0 0 0 0 0 0 0 0 0 0 0 0 0 0 0 0 0 0 0 1 2 1 0 0 0 0 1 0 0 1 0 0 0 0 0 0 0 0 0 0 0 0 0 0 0 0
0 0 0 0 0 0 0 0 0 0 0 0 0 0 0 0 0 0 0 0 0 0 0 0 0 1 0 0 1 1 1 0 0 0 0 0 0 0 0 0 0 0 0 0 0 0 0 0 0 0 0 0 0 0
0 0 0 0 0 0 0 0 0 0 0 0 0 0 0 0 0 0 0 0 0 0 0 0 0 0 0 0 0 0 1 0 0 0 0 0 0 0 0 0 0 0 0 0 0 0 0 0 0 0 0 0 0 0
0 0 0 0 0 0 0 0 0 0 0 0 0 0 0 0 0 0 0 0 0 0 0 0 0 0 0 0 0 0 0 0 0 0 0 0 0 0 0 0 0 0 0 0 0 0 0 0 0 0 0 0 0 0
0 0 0 0 0 0 0 0 0 0 0 0 0 0 0 0 0 0 0 0 0 0 0 0 0 0 0 0 0 0 0 0 0 0 0 0 0 0 0 0 0 0 0 0 0 0 0 0 0 0 0 0 0 0
0 0 0 0 0 0 0 0 0 0 0 0 0 0 0 0 0 0 0 0 0 0 0 0 0 0 0 0 0 0 0 0 0 0 0 0 0 0 0 0 0 0 0 0 0 0 0 0 0 0 0 0 0 0
0 0 0 0 0 0 0 0 0 0 0 0 0 0 0 0 0 0 0 0 0 0 0 0 0 0 0 0 0 0 0 0 0 0 0 0 0 0 0 0 0 0 0 0 0 0 0 0 0 0 0 0 0 0
0 0 0 0 0 0 0 0 0 0 0 0 0 0 0 0 0 0 0 0 0 0 0 0 0 0 0 0 0 0 0 0 0 0 0 0 0 0 0 0 0 0 0 0 0 0 0 0 0 0 0 0 0 0
0 0 0 0 0 0 0 0 0 0 0 0 0 0 0 0 0 0 0 0 0 0 0 0 0 0 0 0 0 0 0 0 0 0 0 0 0 0 0 0 0 0 0 0 0 0 0 0 0 0 0 0 0 0
0 0 0 0 0 0 0 0 0 0 0 0 0 0 0 0 0 0 0 0 0 0 0 0 0 0 0 0 0 0 0 0 0 0 0 0 0 0 0 0 0 0 0 0 0 0 0 0 0 0 0 0 0 0
0 0 0 0 0 0 0 0 0 0 0 0 0 0 0 0 0 0 0 0 0 0 0 0 0 0 0 0 0 0 0 0 0 0 0 0 0 0 0 0 0 0 0 0 0 0 0 0 0 0 0 0 0 0
0 0 0 0 0 0 0 0 0 0 0 0 0 0 0 0 0 0 0 0 0 0 0 0 0 0 0 0 0 0 0 0 0 0 0 0 0 0 0 0 0 0 0 0 0 0 0 0 0 0 0 0 0 0
0 0 0 0 0 0 0 0 0 0 0 0 0 0 0 0 0 0 0 0 0 0 0 0 0 0 0 0 0 0 0 0 0 0 0 0 0 0 0 0 0 0 0 0 0 0 0 0 0 0 0 0 0 0
CIN
0 0 0 0 0 0 -6 0 0 0 -2 -5 0 0 -11 -1 -5 0 0 -7 -4 -2 0 -58 -59 -4 0 0 0 0 0 0 0 0 -17 -5 0 0 0 0 0 0 -45 0 0 0 0 0 0 0 0 0 0 0
0 0 0 0 0 0 -1 -3 -10 -2 0 0 0 -23 -15 -2 -2 0 0 -7 -3 0 -1 0 0 0 0 0 0 0 0 0 0 0 0 0 0 0 0 0 0 0 0 0 0 0 0 0 0 0 0 0 0 0
0 0 0 -1 -2 -1 0 0 -5 -4 0 -6 0 0 -8 -1 -1 -1 0 -2 -1 0 0 0 0 0 0 0 0 0 0 0 -72 -14 0 -28 0 0 0 0 0 0 0 0 0 0 0 0 0 0 0 0 0 0
-3 -2 -2 -2 -2 -2 -1 -1 -2 -1 -1 0 -29 -8 -3 -3 -10 0 -1 -8 -2 0 0 0 0 0 -41 -42 0 0 0 -71 -110 0 -35 0 0 0 0 0 0 0 0 0 0 0 0 0 0 0 0 0 0 0
0 -2 0 0 -4 -3 -5 0 0 0 -10 -3 -37 0 -51 -3 0 -11 -14 -23 -6 -1 0 0 0 0 -39 -48 -52 -60 -18 0 0 -47 0 -79 0 0 0 0 0 0 0 0 0 0 0 0 0 0 0 0 0 0
-8 0 0 0 -3 -2 -1 0 -1 0 0 0 0 0 -2 -2 -6 0 0 -7 -18 -4 0 -3 0 0 -88 -31 -44 -50 -58 -48 0 0 0 0 0 0 0 0 0 0 0 0 0 0 0 0 0 0 0 0 0 0
-9 0 0 0 0 -3 -1 -1 -2 -1 0 -1 0 -11 -13 -4 -1 0 -7 -17 -15 -7 -1 -2 -1 0 -38 -61 -46 -75 0 -23 -48 0 0 0 0 0 0 0 0 0 0 0 0 0 0 0 0 0 0 0 0 0
0 0 0 -1 -3 -2 -2 -5 -8 -3 -6 0 0 0 0 -17 0 0 -36 0 0 -6 -9 -4 -5 0 0 -8 -14 0 0 0 0 0 0 0 0 0 0 0 0 0 0 0 0 0 0 0 0 0 0 0 0 0
0 0 0 0 0 0 0 0 0 0 0 0 -2 -2 -1 0 0 0 -5 -1 -16 -1 -10 0 -5 -2 0 0 0 0 0 0 0 0 0 0 0 0 0 0 0 0 0 0 0 0 0 0 0 0 0 0 0 0
0 0 0 0 0 0 0 0 0 0 0 0 -2 -27 -18 0 -6 -3 0 0 0 0 -3 0 0 -9 0 0 0 0 0 0 0 0 0 0 0 0 0 0 0 0 0 0 0 0 0 0 0 0 0 0 0 0
0 0 0 0 0 0 0 0 0 0 0 -1 0 0 -17 -10 -6 -3 0 0 0 0 0 0 0 0 0 0 0 0 0 0 0 0 0 0 0 0 0 0 0 0 0 0 0 0 0 0 0 0 0 0 0 0
0 0 0 0 0 0 0 0 0 0 0 0 0 -4 -9 -17 -16 0 0 0 0 0 0 0 0 0 0 0 0 0 0 0 0 0 0 0 0 0 0 0 0 0 0 0 0 0 0 0 0 0 0 0 0 0
0 0 0 0 0 0 0 0 0 0 0 -16 0 -1 0 0 0 0 0 0 0 0 0 0 0 0 0 0 0 0 0 0 0 0 0 0 0 0 0 0 0 0 0 0 0 0 0 0 0 0 0 0 0 0
0 0 0 0 0 0 0 0 0 -1 -26 0 0 0 0 0 0 0 0 0 0 0 0 0 0 0 0 0 0 0 0 0 0 0 0 0 0 0 0 0 0 0 0 0 0 0 0 0 0 0 0 0 0 0
0 0 0 0 0 0 0 0 0 0 0 0 0 0 0 0 0 0 0 0 0 0 0 0 0 0 0 0 0 0 0 0 0 0 0 0 0 0 0 0 0 0 0 0 0 0 0 0 0 0 0 0 0 0
0 0 0 0 0 0 0 0 0 0 0 0 0 0 0 0 0 0 0 0 0 0 0 0 0 0 0 0 -1 0 0 0 0 0 0 0 0 0 0 0 0 0 0 0 0 0 0 0 0 0 0 0 0 0
0 0 0 0 0 0 0 0 0 0 0 0 0 0 0 0 0 0 0 0 0 0 0 0 0 0 0 0 0 0 0 0 0 0 0 0 0 0 0 0 0 0 0 0 0 0 0 0 0 0 0 0 0 0
0 0 0 0 0 0 0 0 0 0 0 0 0 0 0 0 0 0 0 0 0 0 0 0 0 0 0 0 0 0 0 0 0 0 0 0 0 0 0 0 0 0 0 0 0 0 0 0 0 0 0 0 0 0
0 0 0 0 0 0 0 0 0 0 0 0 0 0 0 0 0 0 0 0 0 0 0 0 0 0 0 0 0 0 0 0 0 0 0 0 0 0 0 0 0 0 0 0 0 0 0 0 0 0 0 0 0 0
0 0 0 0 0 0 0 0 0 0 0 0 -1 0 0 0 0 0 0 0 0 0 0 0 0 0 0 0 0 0 0 0 0 0 0 0 0 0 0 0 0 0 0 0 0 0 0 0 0 0 0 0 0 0
0 0 0 0 0 0 0 0 0 0 0 0 0 0 0 0 0 0 0 0 0 0 0 0 0 0 0 0 0 0 0 0 0 0 0 0 0 0 0 0 0 0 0 0 0 0 0 0 0 0 0 0 0 0
0 0 0 0 0 0 0 0 0 0 0 0 0 0 0 0 0 0 0 0 0 0 0 0 0 0 0 0 0 0 0 0 0 0 0 0 0 0 0 0 0 0 0 0 0 0 0 0 0 0 0 0 0 0
0 0 0 0 0 0 0 0 0 0 0 0 0 0 0 0 0 0 0 0 0 0 0 0 0 0 0 0 0 0 0 0 0 0 0 0 0 0 0 0 0 0 0 0 0 0 0 0 0 0 0 0 0 0
0 0 0 0 0 0 0 0 0 0 0 0 0 0 0 0 0 0 0 0 0 0 0 0 0 0 0 0 0 0 0 0 0 0 0 0 0 0 0 0 0 0 0 0 0 0 0 0 0 0 0 0 0 0
0 0 0 0 0 0 0 0 0 0 0 0 0 0 0 0 0 0 0 0 0 0 0 0 0 0 0 0 0 0 0 0 0 0 0 0 0 0 0 0 0 0 0 0 0 0 0 0 0 0 0 0 0 0
0 0 0 -1 0 0 0 0 0 0 0 0 0 0 0 0 0 0 0 0 0 0 0 0 0 0 0 0 0 0 0 0 0 0 0 0 0 0 0 0 0 0 0 0 0 0 0 0 0 0 0 0 0 0
0 0 0 0 0 0 0 0 0 0 0 0 0 0 0 0 0 0 0 0 0 0 0 0 0 0 0 0 0 0 0 0 0 0 0 0 0 0 0 0 0 0 0 0 0 0 0 0 0 0 0 0 0 0
0 0 0 0 0 0 0 0 0 0 0 0 0 0 0 0 0 0 0 0 0 0 0 0 0 0 0 0 0 0 0 0 0 0 0 0 0 0 0 0 0 0 0 0 0 0 0 0 0 0 0 0 0 0
0 0 0 0 0 0 0 0 0 0 0 0 0 0 0 0 0 0 0 0 0 0 0 0 0 0 0 0 0 0 0 0 0 0 0 0 0 0 0 0 0 0 0 0 0 0 0 0 0 0 0 0 0 0
0 0 0 0 0 0 0 0 0 0 0 0 0 0 0 0 0 0 0 0 0 0 0 0 0 0 0 0 0 0 0 0 0 0 0 0 0 0 0 0 0 0 0 0 0 0 0 0 0 0 0 0 0 0
0 0 0 0 0 0 0 0 0 0 0 0 0 0 0 0 0 0 0 0 0 0 0 0 0 0 0 0 0 0 0 0 0 0 0 0 0 0 0 0 0 0 0 0 0 0 0 0 0 0 0 0 0 0
0 0 0 0 0 0 0 0 0 0 0 0 0 0 0 0 0 0 0 0 0 0 0 0 0 0 0 0 0 0 0 0 0 0 0 0 0 0 0 0 0 0 0 0 0 0 0 0 0 0 0 0 0 0
0 0 0 0 0 0 0 0 0 0 0 0 0 0 0 0 0 0 0 0 0 0 0 0 0 0 0 0 0 0 0 0 0 0 0 0 0 0 0 0 0 0 0 0 0 0 0 0 0 0 0 0 0 0
Wind_Speed
21 19 22 24 24 25 26 26 26 25 25 25 25 25 27 46 52 51 42 40 41 40 38 32 35 39 41 45 40 29 31 38 34 37 35 31 28 28 26 21 20 20 19 20 19 21 33 15 11 13 15 10 2 4
21 18 18 19 20 21 20 20 19 19 18 18 22 30 28 45 49 47 41 43 34 38 32 33 38 39 36 33 37 32 33 29 32 33 32 28 27 24 24 28 22 24 20 21 18 21 20 17 16 13 6 1 5 4
22 18 16 16 15 15 15 15 15 17 18 17 24 29 28 45 42 46 41 42 37 38 38 30 33 31 32 37 37 38 36 31 28 26 26 25 28 23 25 27 22 25 18 23 19 22 20 17 12 8 6 5 5 4
17 17 17 16 16 17 16 15 16 15 15 14 16 20 33 45 45 45 45 38 41 31 37 35 26 30 29 32 36 38 32 27 23 27 30 27 28 24 25 24 25 20 17 20 23 19 15 14 9 6 5 6 7 9
12 12 13 16 19 18 16 12 11 11 12 13 17 49 48 52 39 31 33 37 36 41 31 33 33 31 28 30 33 34 34 30 28 31 31 31 28 24 25 25 34 29 21 18 21 13 14 8 4 5 5 7 7 7
7 10 16 14 16 20 22 22 14 30 32 37 26 41 42 31 30 32 36 34 35 32 31 30 26 27 24 22 24 28 30 29 28 27 29 28 26 25 26 28 21 20 22 21 20 7 12 5 6 8 6 7 8 9
37 9 11 12 17 29 35 33 38 33 31 24 19 20 25 27 31 35 36 31 37 29 29 28 27 24 22 20 22 23 23 26 27 27 28 25 24 21 24 27 18 17 14 13 7 5 10 8 11 8 6 7 8 9
39 41 33 17 19 25 24 24 23 21 19 17 14 16 25 24 22 32 28 27 30 30 25 29 27 24 20 26 25 24 23 24 24 23 21 23 19 20 27 21 11 10 8 9 13 14 9 5 5 6 6 5 7 8
41 42 43 44 45 38 28 28 23 21 15 15 20 22 25 25 27 27 19 24 23 31 32 30 28 30 22 21 22 22 19 26 22 28 29 23 22 25 22 17 14 9 13 9 9 6 5 5 5 5 5 6 7 8
40 42 43 43 43 43 42 39 35 33 33 33 33 27 27 30 26 17 24 26 27 29 31 33 27 32 27 24 21 21 21 20 24 27 24 26 29 28 22 17 15 12 7 7 8 11 7 7 6 6 7 8 7 7
38 41 41 43 44 44 43 42 42 40 35 33 31 25 31 34 29 24 23 26 25 27 28 30 30 28 19 21 24 21 17 18 23 19 17 23 23 18 15 11 8 9 9 15 11 8 8 5 5 6 7 7 6 8
37 39 39 40 41 40 41 42 45 42 38 30 21 25 31 30 25 23 23 22 28 28 23 19 18 16 16 12 18 16 18 18 22 17 20 24 23 16 14 11 11 12 11 9 7 6 5 5 5 5 5 6 8 8
37 38 39 39 40 40 42 43 43 37 32 26 28 27 27 21 24 26 28 23 22 18 16 15 15 14 15 15 16 16 19 20 13 19 23 23 14 8 10 11 10 8 8 7 6 5 5 5 5 4 6 6 6 7
40 41 40 39 39 40 44 42 43 25 19 18 18 16 15 17 17 18 17 16 15 12 6 7 11 13 13 13 16 18 18 17 22 25 25 18 10 6 6 6 5 6 5 5 5 5 5 4 5 6 6 5 6 8
16 26 24 12 36 37 39 38 21 13 12 10 10 10 9 10 10 13 12 10 11 11 9 8 11 12 12 13 16 15 17 20 22 23 20 10 4 3 4 4 3 2 3 4 5 4 4 4 5 6 7 8 8 9
20 8 6 6 9 19 16 20 12 11 10 10 10 9 11 10 10 10 10 10 12 11 11 12 12 14 15 14 15 17 17 19 19 17 10 5 5 4 3 3 4 3 3 4 4 3 4 5 6 6 7 8 9 10
6 9 9 8 2 3 9 9 11 12 13 13 12 13 12 11 12 13 14 14 15 13 13 14 15 16 14 16 18 18 19 18 16 12 8 5 4 3 4 3 3 4 4 5 5 5 6 6 6 6 7 9 10 12
8 8 9 8 14 7 9 12 12 13 11 12 11 13 12 13 14 14 16 16 14 12 13 14 14 15 16 17 17 18 16 15 13 11 8 6 5 5 4 4 5 6 5 6 6 6 6 6 7 9 10 11 12 14
12 11 11 11 11 10 12 15 14 12 12 11 12 12 12 12 14 14 14 14 13 12 12 14 15 16 17 17 18 16 15 13 10 9 9 8 6 5 6 6 7 7 7 7 6 7 9 10 11 11 12 14 17 18
17 17 15 12 12 12 13 14 13 12 11 12 13 14 14 15 16 16 16 16 15 14 15 15 16 18 18 20 18 14 12 9 8 8 9 10 9 8 9 8 8 8 8 9 10 10 11 14 16 16 17 18 19 21
17 16 16 15 16 15 13 14 13 11 11 11 12 13 13 16 18 18 18 17 16 13 14 16 16 17 17 17 16 13 12 11 11 10 9 10 11 11 11 11 11 11 11 12 13 14 15 17 17 18 20 22 22 22
19 18 19 20 19 18 17 18 13 13 13 12 14 14 14 16 17 18 18 18 16 17 17 17 18 17 16 17 17 16 14 13 13 13 13 13 13 14 15 15 14 15 15 16 16 17 18 19 19 20 22 24 24 25
10 21 20 22 19 18 17 18 16 17 15 15 16 17 18 17 17 17 15 18 17 20 19 18 17 17 16 17 17 18 17 16 15 15 15 15 16 16 16 17 17 18 18 20 19 19 21 20 21 23 25 26 27 29
23 20 21 21 22 19 19 19 19 18 17 17 17 17 18 17 16 15 15 17 20 21 20 20 18 17 17 18 18 19 19 17 17 17 18 17 18 19 19 19 20 21 21 20 21 22 23 25 25 27 29 29 30 31
21 23 21 22 23 21 21 22 22 19 19 19 18 19 18 18 18 17 17 19 21 21 21 20 19 19 18 18 19 20 21 20 19 19 21 20 19 19 21 21 22 23 23 24 26 27 27 28 29 30 32 33 33 34
21 25 22 22 23 22 21 22 21 20 21 20 20 19 17 17 19 19 18 20 19 20 21 20 19 19 19 20 20 21 22 20 19 20 22 22 22 22 23 25 26 26 26 26 28 29 31 31 32 34 35 34 35 36
22 22 22 22 19 19 20 20 20 21 21 20 19 18 18 18 18 16 15 18 17 18 19 19 19 19 19 20 20 21 21 21 20 19 20 22 24 25 25 27 28 28 27 28 30 31 33 35 35 36 36 35 36 37
20 21 22 22 21 22 20 20 21 21 20 20 17 18 17 17 16 16 16 15 15 17 18 20 20 20 21 21 20 20 21 20 20 20 22 24 26 28 28 28 28 30 31 31 33 33 34 36 36 36 37 38 38 36
21 21 19 22 21 21 22 20 19 19 21 18 17 18 17 16 16 16 17 17 17 17 19 19 20 21 21 22 22 23 24 24 24 27 29 31 32 32 32 32 33 33 34 35 36 36 35 35 36 36 37 37 35 34
22 21 20 21 21 21 21 19 19 20 21 18 16 14 14 16 17 17 17 18 18 19 19 19 20 21 21 22 23 24 25 27 27 28 31 32 32 32 33 33 34 35 36 36 37 36 36 35 36 36 36 36 34 32
21 20 21 21 20 18 17 19 21 21 20 19 16 15 14 13 16 19 19 18 18 18 19 20 21 21 22 24 24 25 27 28 29 29 29 29 30 31 32 33 33 33 33 33 34 34 35 35 35 36 36 34 31 28
22 21 20 20 19 15 14 20 20 19 18 18 17 16 16 16 17 17 19 18 19 20 20 21 22 23 22 22 23 24 25 27 29 29 29 28 28 28 29 29 29 30 30 31 31 32 33 34 35 35 33 31 29 28
20 21 21 20 19 17 18 18 19 19 18 18 17 16 16 16 16 15 16 18 19 20 22 22 21 19 19 22 24 26 27 26 25 25 24 26 26 27 28 27 27 26 26 26 26 27 28 30 31 30 29 28 26 25
Wind_Direction
92 129 134 141 147 151 151 156 160 163 166 174 180 183 205 214 206 209 221 216 220 224 230 233 232 231 231 232 235 243 238 239 240 241 248 251 260 259 263 267 264 261 268 275 285 288 287 309 304 293 312 323 306 303
91 114 129 133 137 144 155 163 169 176 182 190 182 174 195 204 208 206 219 212 221 223 230 240 240 238 237 238 237 240 241 242 239 240 247 253 260 267 264 265 273 269 271 273 279 292 303 309 308 311 321 340 312 319
89 102 115 124 133 141 151 162 169 166 165 168 156 154 197 205 205 205 215 207 217 223 235 238 232 239 247 245 242 240 243 245 245 248 251 257 261 265 268 270 274 272 276 279 288 292 298 306 309 313 316 321 326 333
89 95 102 110 113 117 125 137 148 161 166 177 177 174 207 203 205 207 211 210 213 222 224 230 247 244 253 250 242 240 247 245 249 248 250 259 262 268 271 280 278 277 271 276 286 293 304 303 303 304 314 321 328 330
90 101 103 102 104 107 112 127 147 181 190 195 197 194 197 191 195 198 208 214 218 216 227 234 251 253 262 252 244 240 241 244 247 247 253 257 262 266 274 283 281 272 265 266 282 274 290 282 281 295 298 310 323 333
164 163 173 166 105 102 99 106 128 172 173 172 166 170 173 181 192 196 206 216 218 226 231 232 253 251 261 256 244 239 238 243 248 252 257 262 269 268 273 275 278 272 272 274 282 269 291 277 288 297 303 315 326 334
131 124 138 128 109 104 110 162 158 164 161 162 150 156 177 187 195 203 210 217 214 224 227 241 245 250 258 258 247 243 244 245 249 253 257 261 265 267 277 273 272 265 274 278 276 273 289 279 282 294 311 328 340 347
130 137 127 116 110 104 165 166 165 165 162 158 152 171 182 192 207 213 225 224 205 219 231 236 238 249 267 250 246 248 246 249 252 254 259 261 266 270 272 280 269 259 264 274 280 291 283 286 298 308 322 337 341 345
129 136 141 143 147 161 168 168 169 169 159 165 173 173 183 199 205 207 208 197 217 221 225 234 240 249 262 261 256 251 254 246 261 253 256 263 264 263 276 269 257 243 272 267 285 298 295 284 291 302 313 322 332 338
130 131 137 144 153 158 161 165 167 165 164 161 164 177 186 197 189 179 203 212 222 232 237 241 254 253 256 254 259 255 246 253 263 263 250 261 262 264 277 268 261 270 264 256 274 282 282 286 286 295 305 318 329 338
137 132 137 143 145 148 152 153 152 152 158 161 164 170 167 169 184 195 200 207 223 235 245 251 262 257 267 259 249 249 242 248 261 273 255 255 266 269 271 264 267 272 278 286 291 288 288 280 276 293 311 327 336 338
132 138 144 150 150 154 155 158 154 157 160 167 164 155 165 167 183 202 207 220 207 218 235 245 248 259 261 282 255 254 259 270 268 270 267 273 280 263 262 257 262 275 283 297 302 296 294 300 304 317 322 324 329 340
129 139 146 148 145 147 148 156 156 162 160 164 151 151 172 194 197 203 202 219 218 241 252 246 248 262 263 271 278 280 276 271 279 275 277 282 288 275 266 263 273 285 294 302 311 322 330 332 331 330 330 337 348 350
95 115 127 132 138 139 146 145 150 174 189 187 198 193 203 209 222 224 233 237 255 272 284 272 272 278 283 279 285 276 278 276 273 273 278 290 290 285 282 279 276 288 299 312 320 324 330 342 342 344 355 1 360 351
63 88 76 158 132 138 144 147 169 204 214 224 235 241 244 242 241 235 245 266 269 265 271 277 291 296 289 289 288 287 280 277 279 280 289 297 301 300 299 295 295 299 309 323 328 329 339 354 9 7 359 357 355 355
144 113 168 192 195 97 93 201 246 267 268 276 292 264 269 280 285 279 283 292 303 297 299 304 304 295 289 293 290 285 284 287 292 298 310 324 325 325 322 313 316 323 337 346 356 13 13 1 357 358 1 0 357 353
1 229 230 218 324 352 248 272 303 309 291 287 288 300 312 321 317 307 301 304 306 312 304 306 295 294 311 294 289 296 292 299 310 317 327 341 350 347 340 346 4 14 11 7 8 359 354 4 14 6 351 346 345 344
337 268 300 294 59 334 303 300 302 315 315 315 319 322 337 330 312 313 306 305 316 322 320 316 316 305 301 297 300 300 305 314 321 326 331 338 352 356 359 11 3 1 1 356 352 358 3 359 346 339 342 341 339 335
349 334 326 339 357 351 330 329 326 322 327 312 315 313 328 325 323 319 319 321 335 334 321 315 316 310 308 312 309 312 316 320 328 334 350 359 10 20 12 6 3 359 357 357 357 345 342 340 338 337 334 332 329 329
1 357 345 335 332 341 345 338 342 337 323 333 350 355 345 332 328 339 340 331 333 324 321 320 317 315 311 310 312 321 331 350 11 2 356 359 359 3 354 352 353 0 357 353 348 343 337 335 335 334 331 329 327 326
1 346 350 358 4 3 357 344 348 349 345 339 343 347 352 358 358 354 353 350 358 340 339 334 330 330 336 341 344 349 352 356 346 345 348 349 353 356 354 353 352 345 338 334 330 331 331 329 329 330 330 329 329 328
2 357 11 6 18 12 8 349 351 344 336 340 340 338 333 333 338 345 353 355 352 345 342 341 342 342 344 349 354 358 358 5 5 4 360 356 342 339 341 342 342 335 337 334 332 328 329 329 328 328 328 328 329 328
52 8 8 359 2 357 352 349 352 344 331 324 323 319 320 323 328 332 331 341 344 337 339 340 345 351 355 357 2 2 359 1 357 355 354 354 353 351 348 345 342 335 331 331 333 331 329 331 330 328 328 327 326 325
14 3 354 353 354 354 345 343 340 334 333 325 323 321 323 323 332 325 323 327 332 333 338 340 339 340 345 348 347 344 345 349 352 349 346 344 341 341 343 342 341 340 337 335 334 332 332 328 330 327 326 325 324 323
0 348 356 348 351 349 341 338 335 331 328 327 321 317 317 321 315 316 318 323 328 332 334 338 341 341 340 340 341 341 344 344 341 341 339 344 339 339 338 342 344 343 341 333 330 328 328 328 327 326 325 324 324 324
3 359 356 349 350 353 352 339 341 340 335 330 327 324 327 321 314 310 315 322 327 330 333 336 337 340 342 342 339 338 338 349 354 347 344 349 342 338 335 333 331 332 340 338 332 329 327 326 325 325 324 323 323 322
2 1 10 15 20 22 17 14 7 350 341 331 331 331 327 318 317 324 332 335 338 341 344 347 345 345 343 343 347 352 355 357 356 356 357 354 351 348 342 336 333 333 335 334 331 329 326 325 324 323 323 323 322 322
20 20 14 16 22 18 15 9 6 355 351 344 339 333 330 326 323 326 329 342 349 358 358 358 359 357 351 347 349 351 353 357 358 355 352 350 350 348 345 343 340 338 335 333 330 328 326 324 324 323 322 321 322 323
19 20 23 14 16 15 12 13 11 2 345 347 340 333 333 342 339 338 338 343 350 347 344 345 346 353 352 356 357 355 353 347 343 338 335 334 335 336 341 339 336 335 334 332 331 329 327 327 325 324 324 323 323 323
15 15 22 15 11 9 10 9 7 359 355 356 356 4 358 350 344 354 350 348 347 347 348 349 349 349 347 348 347 348 349 349 348 343 338 336 337 339 339 340 339 338 336 335 333 333 332 331 329 328 326 326 325 325
16 19 16 16 17 21 30 32 20 10 6 6 12 8 359 356 352 352 351 350 352 351 351 351 351 352 351 349 347 345 343 345 346 346 345 343 342 342 342 343 344 345 346 345 345 343 341 340 337 335 333 330 330 330
15 17 21 17 18 35 35 4 4 5 5 2 1 2 356 350 346 349 346 352 352 350 350 350 348 348 353 357 355 354 352 349 348 349 351 354 355 356 355 356 356 356 356 355 354 352 350 348 345 342 340 338 337 334
22 18 18 19 17 16 8 7 2 3 0 359 358 359 357 358 357 2 1 2 359 354 351 351 356 3 5 0 358 356 356 359 3 5 7 6 8 6 6 7 8 10 11 11 11 9 7 4 2 1 359 356 353 350